Regional Weather Roundup
Issued by NWS

Home | Current Version | Previous Version | Graphics & Text | Print | Product List | Glossary On
Versions: 1 2 3 4 5 6 7 8 9 10 11 12 13 14 15 16 17 18 19 20 21 22 23 24 25 26 27 28 29 30 31 32 33 34 35 36 37 38 39 40 41 42 43 44 45 46 47 48 49 50
000
ASUS43 KDMX 290507
RWRIA

WEATHER ROUNDUP FOR IOWA
NATIONAL WEATHER SERVICE DES MOINES IA
1200 AM CDT MON JUN 29 2015

NOTE: "FAIR" INDICATES FEW OR NO CLOUDS BELOW 12,000 FEET WITH NO
SIGNIFICANT WEATHER AND/OR OBSTRUCTIONS TO VISIBILITY.

* - THESE STATIONS ARE NOT NWS STATIONS...THUS NOT UNDER NWS
QUALITY CONTROL.  THEY ALSO DO NOT REPORT WEATHER SUCH
AS PRECIPITATION OR FOG.

IAZ001>003-012>014-020>022-031>034-043>046-290600-
   NORTHWEST IOWA

CITY           SKY/WX    TMP DP  RH WIND       PRES   REMARKS
CARROLL *      CLEAR     68  64  88 NW8       29.87S
CHEROKEE *     PTCLDY    64  61  88 CALM      29.89S
DENISON *      CLEAR     66  61  82 CALM      29.88R
LE MARS *        N/A     64  61  88 CALM      29.91S
ORANGE CITY *  CLEAR     64  57  77 CALM      29.90S
SHELDON *      CLEAR     64  64 100 CALM      29.88S
SIOUX CITY     CLEAR     67  58  72 CALM      29.90S
SPENCER          N/A     62  58  86 NW7       29.88S
STORM LAKE *   CLEAR     66  59  77 N8        29.90S
$$

IAZ055>058-069>071-079>083-090>094-290600-
   SOUTHWEST IOWA

CITY           SKY/WX    TMP DP  RH WIND       PRES   REMARKS
ATLANTIC *     CLEAR     66  61  82 N5        29.88S
AUDUBON *      CLEAR     68  61  77 NW3       29.89S
CLARINDA *     CLEAR     66  64  94 CALM      29.89R
COUNCIL BLFS * CLEAR     70  59  68 N5        29.91R
CRESTON *      CLEAR     68  63  83 NW7       29.87S
HARLAN  *      CLEAR     64  64 100 NW5       29.92S
LAMONI         CLEAR     71  64  78 NW8       29.85S
RED OAK *      CLEAR     70  63  78 NW9       29.88S
SHENANDOAH *   CLEAR     68  63  83 CALM      29.89R HAZE
$$

IAZ047>049-059>061-072>074-084-290600-
   CENTRAL IOWA

CITY           SKY/WX    TMP DP  RH WIND       PRES   REMARKS
AMES           CLEAR     68  63  84 N3        29.84S
ANKENY *       CLEAR     68  66  94 CALM      29.83S
CHARITON *     CLEAR     68  64  88 NW6       29.83S
DES MOINES     PTCLDY    71  65  81 NW5       29.83S
GRINNELL*      PTCLDY    66  64  94 CALM      29.84S FOG
KNOXVILLE *    MOCLDY    68  64  88 N7        29.82R
MARSHALLTOWN   FOG       65  64  97 NW3       29.82F VSB 3/4
PELLA *        PTCLDY    65  65 100 CALM      29.84R
PERRY *          N/A     66  64  94 NW5       29.86R
$$

IAZ004>006-015-016-023>025-035-036-290600-
   NORTH CENTRAL IOWA

CITY           SKY/WX    TMP DP  RH WIND       PRES   REMARKS
ALGONA *       PTCLDY    66  64  94 CALM      29.86S
CLARION *      PTCLDY    64  61  88 W5        29.85S
ESTHERVILLE    CLEAR     63  60  90 NW8       29.86S
FORT DODGE *   CLEAR     64  63  94 CALM      29.87R
MASON CITY     PTCLDY    62  60  93 W5        29.86S
FOREST CITY *  CLEAR     61  61 100 CALM      29.85S FOG
IOWA FALLS *     N/A     64  63  94 CALM      29.85S
$$

IAZ007>011-017>019-026>030-037>042-050>054-066-290600-
   NORTHEAST IOWA

CITY           SKY/WX    TMP DP  RH WIND       PRES   REMARKS
CEDAR RAPIDS   MOCLDY    63  63 100 N3        29.82S
CHARLES CITY * CLEAR     63  63 100 NW3       29.84S
CLINTON *      PTCLDY    61  59  94 CALM      29.84S
DECORAH *        N/A    N/A N/A N/A MISG        N/A
DUBUQUE        MOCLDY    60  59  96 CALM      29.83S
MONTICELLO *   CLEAR     61  61 100 CALM      29.82S FOG
OELWEIN *        N/A     63  61  94 S3        29.84S
WATERLOO       FOG       63  63 100 CALM      29.82S VSB 1
$$

IAZ064-065-067-068-078-290600-
   EAST CENTRAL IOWA

CITY           SKY/WX    TMP DP  RH WIND       PRES   REMARKS
DAVENPORT      CLEAR     62  60  93 NE6       29.81S
IOWA CITY      PTCLDY    63  61  93 NE6       29.82F
MT. PLEASANT * MOCLDY    66  63  88 CALM      29.80S FOG
MUSCATINE *    CLOUDY    64  63  94 CALM      29.81S
QUAD CITIES    MOCLDY    64  61  90 NE3       29.80S
$$

IAZ062-063-075>077-085>089-095>099-290600-
   SOUTHEAST IOWA

CITY           SKY/WX    TMP DP  RH WIND       PRES   REMARKS
BURLINGTON     PTCLDY    64  64 100 CALM      29.79R
FAIRFIELD *    MOCLDY    64  64 100 N5        29.81R FOG
FORT MADISON * CLEAR     64  64 100 CALM      29.80S
KEOKUK *       CLEAR     68  66  94 NE3       29.78S
OSKALOOSA *    MOCLDY    66  64  94 CALM      29.82S FOG
OTTUMWA        MOCLDY    67  67 100 NE6       29.79F
WASHINGTON *   CLOUDY    66  66 100 N5        29.82S FOG
$$

ABBREVIATIONS USED IN REMARKS
   TC - TEMPERATURES IN CELSIUS
  WCI - WIND CHILL INDEX
   HX - HEAT INDEX
  VSB - VISIBILITY
$$



USA.gov is the U.S. government's official web portal to all federal, state and local government web resources and services.